Time,TemperatureF,DewpointF,PressureIn,WindDirection,WindDirectionDegrees,WindSpeedMPH,WindSpeedGustMPH,Humidity,HourlyPrecipIn,Conditions,Clouds,dailyrainin,SoftwareType,DateUTC
2013-04-30 00:02:00,63.0,56.0,29.50,North,-999,0.0,-999.0,77,-99.99,,,-99.99,,2013-04-30 05:02:00,
2013-04-30 00:12:00,63.0,56.0,29.50,North,-999,0.0,-999.0,77,-99.99,,,-99.99,,2013-04-30 05:12:00,
2013-04-30 00:22:00,62.0,55.0,29.49,North,-999,0.0,-999.0,77,-99.99,,,-99.99,,2013-04-30 05:22:00,
2013-04-30 00:31:00,62.0,55.0,29.49,North,-999,0.0,-999.0,78,-99.99,,,-99.99,,2013-04-30 05:31:00,
2013-04-30 00:42:00,62.0,55.0,29.49,North,-999,0.0,-999.0,78,-99.99,,,-99.99,,2013-04-30 05:42:00,
2013-04-30 00:51:00,62.0,55.0,29.48,North,-999,0.0,-999.0,78,-99.99,,,-99.99,,2013-04-30 05:51:00,
2013-04-30 01:02:00,61.0,54.0,29.47,North,-999,0.0,-999.0,79,-99.99,,,-99.99,,2013-04-30 06:02:00,
2013-04-30 01:12:00,61.0,54.0,29.46,North,-999,0.0,-999.0,79,-99.99,,,-99.99,,2013-04-30 06:12:00,
2013-04-30 01:21:00,61.0,54.0,29.46,North,-999,0.0,-999.0,79,-99.99,,,-99.99,,2013-04-30 06:21:00,
2013-04-30 01:31:00,61.0,54.0,29.46,North,-999,0.0,-999.0,79,-99.99,,,-99.99,,2013-04-30 06:31:00,
2013-04-30 01:41:00,61.0,54.0,29.46,North,-999,0.0,-999.0,79,-99.99,,,-99.99,,2013-04-30 06:41:00,
2013-04-30 01:52:00,61.0,54.0,29.45,North,-999,0.0,-999.0,79,-99.99,,,-99.99,,2013-04-30 06:52:00,
2013-04-30 02:01:00,61.0,54.0,29.44,North,-999,0.0,-999.0,79,-99.99,,,-99.99,,2013-04-30 07:01:00,
2013-04-30 02:11:00,61.0,54.0,29.44,North,-999,0.0,-999.0,79,-99.99,,,-99.99,,2013-04-30 07:11:00,
2013-04-30 02:21:00,61.0,54.0,29.43,North,-999,0.0,-999.0,79,-99.99,,,-99.99,,2013-04-30 07:21:00,
2013-04-30 02:31:00,61.0,54.0,29.43,North,-999,0.0,-999.0,79,-99.99,,,-99.99,,2013-04-30 07:31:00,
2013-04-30 02:41:00,61.0,54.0,29.43,North,-999,0.0,-999.0,79,-99.99,,,-99.99,,2013-04-30 07:41:00,
2013-04-30 02:52:00,61.0,54.0,29.42,North,-999,0.0,-999.0,78,-99.99,,,-99.99,,2013-04-30 07:52:00,
2013-04-30 03:02:00,61.0,54.0,29.42,North,-999,0.0,-999.0,78,-99.99,,,-99.99,,2013-04-30 08:02:00,
2013-04-30 03:11:00,61.0,54.0,29.42,North,-999,0.0,-999.0,78,-99.99,,,-99.99,,2013-04-30 08:11:00,
2013-04-30 03:21:00,61.0,54.0,29.41,North,-999,0.0,-999.0,78,-99.99,,,-99.99,,2013-04-30 08:21:00,
2013-04-30 03:32:00,61.0,54.0,29.41,North,-999,0.0,-999.0,78,-99.99,,,-99.99,,2013-04-30 08:32:00,
2013-04-30 03:42:00,61.0,54.0,29.41,North,-999,0.0,-999.0,78,-99.99,,,-99.99,,2013-04-30 08:42:00,
2013-04-30 03:52:00,61.0,54.0,29.39,North,-999,0.0,-999.0,78,-99.99,,,-99.99,,2013-04-30 08:52:00,
2013-04-30 04:01:00,61.0,54.0,29.39,North,-999,0.0,-999.0,79,-99.99,,,-99.99,,2013-04-30 09:01:00,
2013-04-30 04:11:00,61.0,54.0,29.39,North,-999,0.0,-999.0,79,-99.99,,,-99.99,,2013-04-30 09:11:00,
2013-04-30 04:22:00,61.0,55.0,29.39,North,-999,0.0,-999.0,80,-99.99,,,-99.99,,2013-04-30 09:22:00,
2013-04-30 04:33:00,61.0,55.0,29.39,North,-999,0.0,-999.0,80,-99.99,,,-99.99,,2013-04-30 09:33:00,
2013-04-30 04:43:00,61.0,55.0,29.39,North,-999,0.0,-999.0,80,-99.99,,,-99.99,,2013-04-30 09:43:00,
2013-04-30 04:52:00,61.0,55.0,29.38,North,-999,0.0,-999.0,80,-99.99,,,-99.99,,2013-04-30 09:52:00,
2013-04-30 05:03:00,61.0,55.0,29.37,North,-999,0.0,-999.0,80,-99.99,,,-99.99,,2013-04-30 10:03:00,
2013-04-30 05:11:00,61.0,55.0,29.37,North,-999,0.0,-999.0,80,-99.99,,,-99.99,,2013-04-30 10:11:00,
2013-04-30 05:22:00,61.0,55.0,29.36,North,-999,0.0,-999.0,81,-99.99,,,-99.99,,2013-04-30 10:22:00,
2013-04-30 05:32:00,61.0,55.0,29.36,North,-999,0.0,-999.0,81,-99.99,,,-99.99,,2013-04-30 10:32:00,
2013-04-30 05:41:00,61.0,55.0,29.36,North,-999,0.0,-999.0,81,-99.99,,,-99.99,,2013-04-30 10:41:00,
2013-04-30 05:52:00,62.0,56.0,29.36,North,-999,0.0,-999.0,82,-99.99,,,-99.99,,2013-04-30 10:52:00,
2013-04-30 06:02:00,62.0,56.0,29.36,North,-999,0.0,-999.0,81,-99.99,,,-99.99,,2013-04-30 11:02:00,
2013-04-30 06:11:00,62.0,56.0,29.36,North,-999,0.0,-999.0,81,-99.99,,,-99.99,,2013-04-30 11:11:00,
2013-04-30 06:21:00,62.0,57.0,29.36,North,-999,0.0,-999.0,83,-99.99,,,-99.99,,2013-04-30 11:21:00,
2013-04-30 06:31:00,63.0,57.0,29.35,North,-999,0.0,-999.0,82,-99.99,,,-99.99,,2013-04-30 11:31:00,
2013-04-30 06:42:00,63.0,57.0,29.35,North,-999,0.0,-999.0,82,-99.99,,,-99.99,,2013-04-30 11:42:00,
2013-04-30 06:51:00,63.0,57.0,29.35,North,-999,0.0,-999.0,82,-99.99,,,-99.99,,2013-04-30 11:51:00,
2013-04-30 07:01:00,64.0,58.0,29.36,North,-999,0.0,-999.0,82,-99.99,,,-99.99,,2013-04-30 12:01:00,
2013-04-30 07:11:00,64.0,58.0,29.36,North,-999,0.0,-999.0,82,-99.99,,,-99.99,,2013-04-30 12:11:00,
2013-04-30 07:21:00,65.0,59.0,29.36,North,-999,0.0,-999.0,80,-99.99,,,-99.99,,2013-04-30 12:21:00,
2013-04-30 07:31:00,65.0,58.0,29.37,North,-999,0.0,-999.0,79,-99.99,,,-99.99,,2013-04-30 12:31:00,
2013-04-30 07:41:00,65.0,58.0,29.37,North,-999,0.0,-999.0,79,-99.99,,,-99.99,,2013-04-30 12:41:00,
2013-04-30 07:51:00,65.0,58.0,29.37,North,-999,0.0,-999.0,78,-99.99,,,-99.99,,2013-04-30 12:51:00,
2013-04-30 08:01:00,66.0,59.0,29.39,North,-999,0.0,-999.0,77,-99.99,,,-99.99,,2013-04-30 13:01:00,
2013-04-30 08:11:00,66.0,59.0,29.39,North,-999,0.0,-999.0,77,-99.99,,,-99.99,,2013-04-30 13:11:00,
2013-04-30 08:21:00,67.0,59.0,29.39,North,-999,0.0,-999.0,76,-99.99,,,-99.99,,2013-04-30 13:21:00,
2013-04-30 08:31:00,67.0,58.0,29.39,North,-999,0.0,-999.0,72,-99.99,,,-99.99,,2013-04-30 13:31:00,
2013-04-30 08:41:00,67.0,58.0,29.39,North,-999,0.0,-999.0,72,-99.99,,,-99.99,,2013-04-30 13:41:00,
2013-04-30 08:51:00,67.0,55.0,29.41,North,-999,0.0,-999.0,65,-99.99,,,-99.99,,2013-04-30 13:51:00,
2013-04-30 09:02:00,67.0,54.0,29.42,North,-999,0.0,-999.0,62,-99.99,,,-99.99,,2013-04-30 14:02:00,
2013-04-30 09:11:00,67.0,51.0,29.43,North,-999,0.0,-999.0,57,-99.99,,,-99.99,,2013-04-30 14:11:00,
2013-04-30 09:21:00,67.0,51.0,29.43,North,-999,0.0,-999.0,57,-99.99,,,-99.99,,2013-04-30 14:21:00,
2013-04-30 09:31:00,66.0,51.0,29.45,North,-999,0.0,-999.0,58,-99.99,,,-99.99,,2013-04-30 14:31:00,
2013-04-30 09:41:00,66.0,51.0,29.45,North,-999,0.0,-999.0,58,-99.99,,,-99.99,,2013-04-30 14:41:00,
2013-04-30 09:52:00,65.0,50.0,29.45,North,-999,0.0,-999.0,58,-99.99,,,-99.99,,2013-04-30 14:52:00,
2013-04-30 10:01:00,64.0,49.0,29.47,North,-999,0.0,-999.0,58,-99.99,,,-99.99,,2013-04-30 15:01:00,
2013-04-30 10:11:00,64.0,49.0,29.47,North,-999,0.0,-999.0,58,-99.99,,,-99.99,,2013-04-30 15:11:00,
2013-04-30 10:21:00,64.0,49.0,29.49,North,-999,0.0,-999.0,58,-99.99,,,-99.99,,2013-04-30 15:21:00,
2013-04-30 10:32:00,63.0,48.0,29.51,North,-999,0.0,-999.0,59,-99.99,,,-99.99,,2013-04-30 15:32:00,
2013-04-30 10:42:00,63.0,48.0,29.51,North,-999,0.0,-999.0,59,-99.99,,,-99.99,,2013-04-30 15:42:00,
2013-04-30 10:52:00,61.0,47.0,29.52,North,-999,0.0,-999.0,61,-99.99,,,-99.99,,2013-04-30 15:52:00,
2013-04-30 11:02:00,60.0,47.0,29.53,North,-999,0.0,-999.0,61,-99.99,,,-99.99,,2013-04-30 16:02:00,
2013-04-30 11:12:00,60.0,47.0,29.53,North,-999,0.0,-999.0,61,-99.99,,,-99.99,,2013-04-30 16:12:00,
2013-04-30 11:23:00,61.0,47.0,29.54,North,-999,0.0,-999.0,61,-99.99,,,-99.99,,2013-04-30 16:23:00,
2013-04-30 11:33:00,62.0,47.0,29.54,North,-999,0.0,-999.0,59,-99.99,,,-99.99,,2013-04-30 16:33:00,
2013-04-30 11:42:00,62.0,47.0,29.54,North,-999,0.0,-999.0,59,-99.99,,,-99.99,,2013-04-30 16:42:00,
2013-04-30 11:52:00,62.0,47.0,29.56,North,-999,0.0,-999.0,57,-99.99,,,-99.99,,2013-04-30 16:52:00,
2013-04-30 12:02:00,61.0,46.0,29.57,North,-999,0.0,-999.0,58,-99.99,,,-99.99,,2013-04-30 17:02:00,
2013-04-30 12:12:00,61.0,46.0,29.57,North,-999,0.0,-999.0,58,-99.99,,,-99.99,,2013-04-30 17:12:00,
2013-04-30 12:22:00,62.0,47.0,29.59,North,-999,0.0,-999.0,57,-99.99,,,-99.99,,2013-04-30 17:22:00,
2013-04-30 12:32:00,62.0,46.0,29.60,North,-999,0.0,-999.0,56,-99.99,,,-99.99,,2013-04-30 17:32:00,
2013-04-30 12:42:00,62.0,46.0,29.60,North,-999,0.0,-999.0,56,-99.99,,,-99.99,,2013-04-30 17:42:00,
2013-04-30 12:52:00,63.0,46.0,29.59,North,-999,0.0,-999.0,53,-99.99,,,-99.99,,2013-04-30 17:52:00,
2013-04-30 13:01:00,63.0,45.0,29.61,North,-999,0.0,-999.0,52,-99.99,,,-99.99,,2013-04-30 18:01:00,
2013-04-30 13:11:00,63.0,45.0,29.61,North,-999,0.0,-999.0,52,-99.99,,,-99.99,,2013-04-30 18:11:00,
2013-04-30 13:22:00,63.0,44.0,29.59,North,-999,0.0,-999.0,50,-99.99,,,-99.99,,2013-04-30 18:22:00,
2013-04-30 13:32:00,63.0,44.0,29.58,North,-999,0.0,-999.0,50,-99.99,,,-99.99,,2013-04-30 18:32:00,
2013-04-30 13:41:00,63.0,44.0,29.58,North,-999,0.0,-999.0,50,-99.99,,,-99.99,,2013-04-30 18:41:00,
2013-04-30 13:51:00,63.0,45.0,29.60,North,-999,0.0,-999.0,51,-99.99,,,-99.99,,2013-04-30 18:51:00,
2013-04-30 14:01:00,64.0,45.0,29.63,North,-999,0.0,-999.0,50,-99.99,,,-99.99,,2013-04-30 19:01:00,
2013-04-30 14:11:00,64.0,45.0,29.63,North,-999,0.0,-999.0,50,-99.99,,,-99.99,,2013-04-30 19:11:00,
2013-04-30 14:22:00,63.0,45.0,29.62,North,-999,0.0,-999.0,52,-99.99,,,-99.99,,2013-04-30 19:22:00,
2013-04-30 14:32:00,64.0,44.0,29.63,North,-999,0.0,-999.0,49,-99.99,,,-99.99,,2013-04-30 19:32:00,
2013-04-30 14:42:00,64.0,44.0,29.63,North,-999,0.0,-999.0,49,-99.99,,,-99.99,,2013-04-30 19:42:00,
2013-04-30 14:52:00,64.0,44.0,29.64,North,-999,0.0,-999.0,48,-99.99,,,-99.99,,2013-04-30 19:52:00,
2013-04-30 15:02:00,64.0,43.0,29.65,North,-999,0.0,-999.0,47,-99.99,,,-99.99,,2013-04-30 20:02:00,
2013-04-30 15:11:00,64.0,43.0,29.65,North,-999,0.0,-999.0,47,-99.99,,,-99.99,,2013-04-30 20:11:00,
2013-04-30 15:21:00,65.0,41.0,29.66,North,-999,0.0,-999.0,42,-99.99,,,-99.99,,2013-04-30 20:21:00,
2013-04-30 15:32:00,65.0,39.0,29.68,North,-999,0.0,-999.0,38,-99.99,,,-99.99,,2013-04-30 20:32:00,
2013-04-30 15:42:00,65.0,39.0,29.68,North,-999,0.0,-999.0,38,-99.99,,,-99.99,,2013-04-30 20:42:00,
2013-04-30 15:52:00,65.0,37.0,29.66,North,-999,0.0,-999.0,35,-99.99,,,-99.99,,2013-04-30 20:52:00,
2013-04-30 16:02:00,65.0,36.0,29.66,North,-999,0.0,-999.0,34,-99.99,,,-99.99,,2013-04-30 21:02:00,
2013-04-30 16:11:00,66.0,38.0,29.67,North,-999,0.0,-999.0,35,-99.99,,,-99.99,,2013-04-30 21:11:00,
2013-04-30 16:22:00,66.0,38.0,29.67,North,-999,0.0,-999.0,35,-99.99,,,-99.99,,2013-04-30 21:22:00,
2013-04-30 16:32:00,66.0,35.0,29.70,North,-999,0.0,-999.0,32,-99.99,,,-99.99,,2013-04-30 21:32:00,
2013-04-30 16:42:00,66.0,35.0,29.70,North,-999,0.0,-999.0,32,-99.99,,,-99.99,,2013-04-30 21:42:00,
2013-04-30 16:52:00,65.0,34.0,29.72,North,-999,0.0,-999.0,31,-99.99,,,-99.99,,2013-04-30 21:52:00,
2013-04-30 17:02:00,65.0,34.0,29.73,North,-999,0.0,-999.0,31,-99.99,,,-99.99,,2013-04-30 22:02:00,
2013-04-30 17:12:00,65.0,34.0,29.73,North,-999,0.0,-999.0,31,-99.99,,,-99.99,,2013-04-30 22:12:00,
2013-04-30 17:23:00,65.0,34.0,29.75,North,-999,0.0,-999.0,31,-99.99,,,-99.99,,2013-04-30 22:23:00,
2013-04-30 17:32:00,65.0,34.0,29.75,North,-999,0.0,-999.0,31,-99.99,,,-99.99,,2013-04-30 22:32:00,
2013-04-30 17:41:00,65.0,34.0,29.75,North,-999,0.0,-999.0,31,-99.99,,,-99.99,,2013-04-30 22:41:00,
2013-04-30 17:52:00,65.0,31.0,29.76,North,-999,0.0,-999.0,28,-99.99,,,-99.99,,2013-04-30 22:52:00,
2013-04-30 18:02:00,65.0,30.0,29.77,North,-999,0.0,-999.0,27,-99.99,,,-99.99,,2013-04-30 23:02:00,
2013-04-30 18:12:00,65.0,30.0,29.77,North,-999,0.0,-999.0,27,-99.99,,,-99.99,,2013-04-30 23:12:00,
2013-04-30 18:22:00,66.0,29.0,29.78,North,-999,0.0,-999.0,25,-99.99,,,-99.99,,2013-04-30 23:22:00,
2013-04-30 18:32:00,66.0,30.0,29.79,North,-999,0.0,-999.0,26,-99.99,,,-99.99,,2013-04-30 23:32:00,
2013-04-30 18:42:00,66.0,30.0,29.79,North,-999,0.0,-999.0,26,-99.99,,,-99.99,,2013-04-30 23:42:00,
2013-04-30 18:52:00,65.0,27.0,29.79,North,-999,0.0,-999.0,24,-99.99,,,-99.99,,2013-04-30 23:52:00,
2013-04-30 19:02:00,64.0,28.0,29.80,North,-999,0.0,-999.0,26,-99.99,,,-99.99,,2013-05-01 00:02:00,
2013-04-30 19:11:00,64.0,28.0,29.80,North,-999,0.0,-999.0,26,-99.99,,,-99.99,,2013-05-01 00:11:00,
2013-04-30 19:21:00,64.0,29.0,29.80,North,-999,0.0,-999.0,27,-99.99,,,-99.99,,2013-05-01 00:21:00,
2013-04-30 19:32:00,63.0,31.0,29.80,North,-999,0.0,-999.0,30,-99.99,,,-99.99,,2013-05-01 00:32:00,
2013-04-30 19:42:00,63.0,31.0,29.80,North,-999,0.0,-999.0,30,-99.99,,,-99.99,,2013-05-01 00:42:00,
2013-04-30 19:51:00,62.0,32.0,29.79,North,-999,0.0,-999.0,32,-99.99,,,-99.99,,2013-05-01 00:51:00,
2013-04-30 20:01:00,62.0,33.0,29.80,North,-999,0.0,-999.0,33,-99.99,,,-99.99,,2013-05-01 01:01:00,
2013-04-30 20:11:00,62.0,33.0,29.80,North,-999,0.0,-999.0,33,-99.99,,,-99.99,,2013-05-01 01:11:00,
2013-04-30 20:21:00,61.0,33.0,29.80,North,-999,0.0,-999.0,35,-99.99,,,-99.99,,2013-05-01 01:21:00,
2013-04-30 20:31:00,61.0,35.0,29.80,North,-999,0.0,-999.0,37,-99.99,,,-99.99,,2013-05-01 01:31:00,
2013-04-30 20:41:00,61.0,35.0,29.80,North,-999,0.0,-999.0,37,-99.99,,,-99.99,,2013-05-01 01:41:00,
2013-04-30 20:52:00,60.0,33.0,29.81,North,-999,0.0,-999.0,36,-99.99,,,-99.99,,2013-05-01 01:52:00,
2013-04-30 21:02:00,59.0,32.0,29.81,North,-999,0.0,-999.0,36,-99.99,,,-99.99,,2013-05-01 02:02:00,
2013-04-30 21:11:00,59.0,32.0,29.81,North,-999,0.0,-999.0,36,-99.99,,,-99.99,,2013-05-01 02:11:00,
2013-04-30 21:21:00,58.0,33.0,29.82,North,-999,0.0,-999.0,38,-99.99,,,-99.99,,2013-05-01 02:21:00,
2013-04-30 21:32:00,58.0,34.0,29.83,North,-999,0.0,-999.0,41,-99.99,,,-99.99,,2013-05-01 02:32:00,
2013-04-30 21:42:00,58.0,34.0,29.83,North,-999,0.0,-999.0,41,-99.99,,,-99.99,,2013-05-01 02:42:00,
2013-04-30 21:51:00,57.0,34.0,29.84,North,-999,0.0,-999.0,42,-99.99,,,-99.99,,2013-05-01 02:51:00,
2013-04-30 22:01:00,57.0,35.0,29.85,North,-999,0.0,-999.0,44,-99.99,,,-99.99,,2013-05-01 03:01:00,
2013-04-30 22:11:00,57.0,35.0,29.85,North,-999,0.0,-999.0,44,-99.99,,,-99.99,,2013-05-01 03:11:00,
2013-04-30 22:21:00,57.0,36.0,29.85,North,-999,0.0,-999.0,45,-99.99,,,-99.99,,2013-05-01 03:21:00,
2013-04-30 22:33:00,57.0,36.0,29.87,North,-999,0.0,-999.0,46,-99.99,,,-99.99,,2013-05-01 03:33:00,
2013-04-30 22:43:00,57.0,36.0,29.87,North,-999,0.0,-999.0,46,-99.99,,,-99.99,,2013-05-01 03:43:00,
2013-04-30 22:53:00,57.0,37.0,29.88,North,-999,0.0,-999.0,47,-99.99,,,-99.99,,2013-05-01 03:53:00,
2013-04-30 23:03:00,56.0,37.0,29.88,North,-999,0.0,-999.0,48,-99.99,,,-99.99,,2013-05-01 04:03:00,
2013-04-30 23:12:00,56.0,37.0,29.88,North,-999,0.0,-999.0,48,-99.99,,,-99.99,,2013-05-01 04:12:00,
2013-04-30 23:22:00,56.0,38.0,29.89,North,-999,0.0,-999.0,50,-99.99,,,-99.99,,2013-05-01 04:22:00,
2013-04-30 23:32:00,56.0,38.0,29.90,North,-999,0.0,-999.0,51,-99.99,,,-99.99,,2013-05-01 04:32:00,
2013-04-30 23:42:00,56.0,38.0,29.90,North,-999,0.0,-999.0,51,-99.99,,,-99.99,,2013-05-01 04:42:00,
2013-04-30 23:52:00,55.0,37.0,29.90,North,-999,0.0,-999.0,50,-99.99,,,-99.99,,2013-05-01 04:52:00,